Powrót do katalogu

STARLINK-30236

AktywnyŁącznośćVLEO
NORAD 57300·PAYLOAD·🇺🇸 United States

Wystrzelony Jul 10, 2023 z Cape Canaveral Space Force Station

Loading…

Następne Przeloty (najbliższe 24 godziny)

TLE

ŚwieżeSource: CelesTrak SupGP

Epoka: Sep 15, 2026, 02:06 UTC

1 57300C 23096L   26258.08798611  .00506720  00000+0  51305-2 0  2581
2 57300  42.9998 226.6166 0001436 274.2472  65.3617 15.64097644    14

Śledź STARLINK-30236 w czasie rzeczywistym z AllMySat

Download on the App Store